START_TIME,STEP,MOV.,H8,t_acc.,H43,t_acc.,M25,t_acc.,H9,t_acc.
1979-02-28 18:00:18.940 ,0,1,0.,12.0,0.,12.0,0.,12.0,0.,12.0
1979-02-28 18:00:30.940 ,0,1,0.,12.0,0.,12.0,0.,12.0,0.,12.0
1979-02-28 18:00:42.940 ,0,1,0.,12.0,0.,12.0,0.,12.0,0.,12.0
1979-02-28 18:00:54.940 ,0,1,0.,12.0,0.,12.0,0.,12.0,0.,12.0
1979-02-28 18:01:06.940 ,1,1,1.,12.0,0.,12.0,0.,12.0,0.,12.0
1979-02-28 18:01:18.940 ,1,1,0.,12.0,0.,12.0,0.,12.0,0.,12.0
1979-02-28 18:01:30.940 ,2,1,0.,12.0,0.,12.0,0.,12.0,0.,12.0
1979-02-28 18:01:42.940 ,2,1,0.,12.0,0.,12.0,0.,12.0,0.,12.0
1979-02-28 18:01:54.940 ,3,1,0.,12.0,0.,12.0,0.,12.0,0.,12.0
1979-02-28 18:02:06.940 ,3,1,0.,12.0,0.,12.0,0.,12.0,0.,12.0
1979-02-28 18:02:18.940 ,4,1,0.,12.0,0.,12.0,0.,12.0,0.,12.0
1979-02-28 18:02:30.940 ,4,1,0.,12.0,0.,12.0,0.,12.0,0.,12.0
1979-02-28 18:02:42.940 ,5,1,0.,12.0,0.,12.0,0.,12.0,0.,12.0
1979-02-28 18:02:54.940 ,5,1,0.,12.0,0.,12.0,0.,12.0,0.,12.0
1979-02-28 18:03:06.940 ,6,1,0.,12.0,0.,12.0,0.,12.0,0.,12.0
1979-02-28 18:03:18.940 ,6,1,0.,12.0,0.,12.0,0.,12.0,0.,12.0
1979-02-28 18:03:30.940 ,7,1,0.,12.0,0.,12.0,0.,12.0,0.,12.0
1979-02-28 18:03:42.940 ,7,1,0.,12.0,0.,12.0,0.,12.0,0.,12.0
1979-02-28 18:03:54.940 ,7,1,0.,12.0,0.,12.0,0.,12.0,0.,12.0
1979-02-28 18:04:06.940 ,7,1,0.,12.0,0.,12.0,0.,12.0,0.,12.0
1979-02-28 18:04:18.940 ,6,1,0.,12.0,0.,12.0,0.,12.0,0.,12.0
1979-02-28 18:04:30.940 ,6,1,0.,12.0,0.,12.0,0.,12.0,0.,12.0
1979-02-28 18:04:42.940 ,5,1,0.,12.0,0.,12.0,0.,12.0,0.,12.0
1979-02-28 18:04:54.940 ,5,1,0.,12.0,0.,12.0,0.,12.0,0.,12.0
1979-02-28 18:05:06.940 ,4,1,0.,12.0,0.,12.0,0.,12.0,0.,12.0
1979-02-28 18:05:18.940 ,4,1,0.,12.0,0.,12.0,0.,12.0,0.,12.0
1979-02-28 18:05:30.940 ,3,1,0.,12.0,0.,12.0,0.,12.0,0.,12.0
1979-02-28 18:05:42.940 ,3,1,0.,12.0,0.,12.0,0.,12.0,0.,12.0
1979-02-28 18:05:54.940 ,2,1,0.,12.0,0.,12.0,0.,12.0,0.,12.0
1979-02-28 18:06:06.940 ,2,1,0.,12.0,0.,12.0,0.,12.0,0.,12.0
1979-02-28 18:06:18.940 ,1,1,0.,12.0,0.,12.0,0.,12.0,0.,12.0
1979-02-28 18:06:30.940 ,1,1,0.,12.0,0.,12.0,0.,12.0,0.,12.0
1979-02-28 18:06:42.940 ,0,1,0.,12.0,0.,12.0,0.,12.0,0.,12.0
1979-02-28 18:06:54.940 ,0,1,0.,12.0,0.,12.0,0.,12.0,0.,12.0
1979-02-28 18:07:06.940 ,0,1,0.,12.0,0.,12.0,0.,12.0,0.,12.0
1979-02-28 18:07:18.940 ,0,1,0.,12.0,0.,12.0,0.,12.0,0.,12.0
1979-02-28 18:07:30.940 ,1,1,0.,12.0,0.,12.0,0.,12.0,0.,12.0
1979-02-28 18:07:42.940 ,1,1,0.,12.0,0.,12.0,0.,12.0,0.,12.0
1979-02-28 18:07:54.940 ,2,1,1.,12.0,0.,12.0,0.,12.0,0.,12.0
1979-02-28 18:08:06.940 ,2,1,0.,12.0,0.,12.0,0.,12.0,0.,12.0
1979-02-28 18:08:18.940 ,3,1,0.,12.0,0.,12.0,0.,12.0,0.,12.0
1979-02-28 18:08:30.940 ,3,1,0.,12.0,0.,12.0,0.,12.0,0.,12.0
1979-02-28 18:08:42.940 ,4,1,0.,12.0,0.,12.0,0.,12.0,0.,12.0
1979-02-28 18:08:54.940 ,4,1,0.,12.0,0.,12.0,0.,12.0,0.,12.0
1979-02-28 18:09:06.940 ,5,1,0.,12.0,0.,12.0,0.,12.0,0.,12.0
1979-02-28 18:09:18.940 ,5,1,0.,12.0,0.,12.0,0.,12.0,0.,12.0
1979-02-28 18:09:30.940 ,6,1,0.,12.0,0.,12.0,0.,12.0,0.,12.0
1979-02-28 18:09:42.940 ,6,1,0.,12.0,0.,12.0,0.,12.0,0.,12.0
1979-02-28 18:09:54.940 ,7,1,0.,12.0,0.,12.0,0.,12.0,0.,12.0
1979-02-28 18:10:06.940 ,7,1,0.,12.0,0.,12.0,0.,12.0,0.,12.0
1979-02-28 18:10:18.940 ,7,1,0.,12.0,0.,12.0,0.,12.0,0.,12.0
1979-02-28 18:10:30.940 ,7,1,0.,12.0,0.,12.0,0.,12.0,0.,12.0
1979-02-28 18:10:42.940 ,6,1,0.,12.0,0.,12.0,0.,12.0,0.,12.0
1979-02-28 18:10:54.940 ,6,1,0.,12.0,0.,12.0,0.,12.0,0.,12.0
1979-02-28 18:11:06.940 ,5,1,0.,12.0,0.,12.0,0.,12.0,0.,12.0
1979-02-28 18:11:18.940 ,5,1,0.,12.0,0.,12.0,0.,12.0,0.,12.0
1979-02-28 18:11:30.940 ,4,1,1.,12.0,0.,12.0,0.,12.0,0.,12.0
1979-02-28 18:11:42.940 ,4,1,0.,12.0,0.,12.0,0.,12.0,0.,12.0
1979-02-28 18:11:54.940 ,3,1,0.,12.0,0.,12.0,0.,12.0,0.,12.0
1979-02-28 18:12:06.940 ,3,1,0.,12.0,0.,12.0,0.,12.0,0.,12.0
1979-02-28 18:12:18.940 ,2,1,0.,12.0,0.,12.0,0.,12.0,0.,12.0
1979-02-28 18:12:30.940 ,2,1,0.,12.0,0.,12.0,0.,12.0,0.,12.0
1979-02-28 18:12:42.940 ,1,1,0.,12.0,0.,12.0,0.,12.0,0.,12.0
1979-02-28 18:12:54.940 ,1,1,0.,12.0,0.,12.0,0.,12.0,0.,12.0
1979-02-28 18:13:06.940 ,0,1,0.,12.0,0.,12.0,0.,12.0,0.,12.0
1979-02-28 18:13:18.940 ,0,1,1.,12.0,0.,12.0,0.,12.0,0.,12.0
1979-02-28 18:13:30.940 ,0,1,0.,12.0,0.,12.0,0.,12.0,0.,12.0
1979-02-28 18:13:42.940 ,0,1,1.,12.0,0.,12.0,0.,12.0,0.,12.0
1979-02-28 18:13:54.940 ,1,1,0.,12.0,0.,12.0,0.,12.0,0.,12.0
1979-02-28 18:14:06.940 ,1,1,0.,12.0,0.,12.0,0.,12.0,0.,12.0
1979-02-28 18:14:18.940 ,2,1,0.,12.0,0.,12.0,0.,12.0,0.,12.0
1979-02-28 18:14:30.940 ,2,1,0.,12.0,0.,12.0,0.,12.0,0.,12.0
1979-02-28 18:14:42.940 ,3,1,0.,12.0,0.,12.0,0.,12.0,0.,12.0
1979-02-28 18:14:54.940 ,3,1,0.,12.0,0.,12.0,0.,12.0,0.,12.0
1979-02-28 18:15:06.940 ,4,1,0.,12.0,0.,12.0,0.,12.0,0.,12.0
1979-02-28 18:15:18.940 ,4,1,0.,12.0,0.,12.0,0.,12.0,0.,12.0
1979-02-28 18:15:30.940 ,5,1,0.,12.0,0.,12.0,0.,12.0,0.,12.0
1979-02-28 18:15:42.940 ,5,1,0.,12.0,0.,12.0,0.,12.0,0.,12.0
1979-02-28 18:15:54.940 ,0,0,0.,12.0,0.,12.0,0.,12.0,0.,12.0
1979-02-28 18:16:06.940 ,0,0,0.,12.0,0.,12.0,0.,12.0,0.,12.0
1979-02-28 18:16:18.940 ,0,0,0.,12.0,0.,12.0,0.,12.0,0.,12.0
1979-02-28 18:16:30.940 ,0,0,0.,12.0,0.,12.0,0.,12.0,0.,12.0
1979-02-28 18:16:42.940 ,7,1,0.,12.0,0.,12.0,0.,12.0,0.,12.0
1979-02-28 18:16:54.940 ,7,1,0.,12.0,0.,12.0,0.,12.0,0.,12.0
1979-02-28 18:17:06.940 ,6,1,0.,12.0,0.,12.0,0.,12.0,0.,12.0
1979-02-28 18:17:18.940 ,6,1,0.,12.0,0.,12.0,0.,12.0,0.,12.0
1979-02-28 18:17:30.940 ,5,1,0.,12.0,0.,12.0,0.,12.0,0.,12.0
1979-02-28 18:17:42.940 ,5,1,0.,12.0,0.,12.0,0.,12.0,0.,12.0
1979-02-28 18:17:54.940 ,4,1,0.,12.0,0.,12.0,0.,12.0,0.,12.0
1979-02-28 18:18:06.940 ,4,1,0.,12.0,0.,12.0,0.,12.0,0.,12.0
1979-02-28 18:18:18.940 ,3,1,0.,12.0,0.,12.0,0.,12.0,0.,12.0
1979-02-28 18:18:30.940 ,3,1,0.,12.0,0.,12.0,0.,12.0,0.,12.0
1979-02-28 18:18:42.940 ,2,1,0.,12.0,0.,12.0,0.,12.0,0.,12.0
1979-02-28 18:18:54.940 ,2,1,0.,12.0,0.,12.0,0.,12.0,0.,12.0
1979-02-28 18:19:06.940 ,1,1,0.,12.0,0.,12.0,0.,12.0,0.,12.0
1979-02-28 18:19:18.940 ,1,1,0.,12.0,0.,12.0,0.,12.0,0.,12.0
1979-02-28 18:19:30.940 ,0,1,0.,12.0,0.,12.0,0.,12.0,0.,12.0
1979-02-28 18:19:42.940 ,0,1,0.,12.0,0.,12.0,0.,12.0,0.,12.0
1979-02-28 18:19:54.940 ,0,1,0.,12.0,0.,12.0,0.,12.0,0.,12.0
1979-02-28 18:20:06.940 ,0,1,0.,12.0,0.,12.0,0.,12.0,0.,12.0
1979-02-28 18:20:18.940 ,1,1,0.,12.0,0.,12.0,0.,12.0,0.,12.0
1979-02-28 18:20:30.940 ,1,1,0.,12.0,0.,12.0,0.,12.0,0.,12.0
1979-02-28 18:20:42.940 ,2,1,0.,12.0,0.,12.0,0.,12.0,0.,12.0
1979-02-28 18:20:54.940 ,2,1,0.,12.0,0.,12.0,0.,12.0,0.,12.0
1979-02-28 18:21:06.940 ,3,1,0.,12.0,0.,12.0,0.,12.0,0.,12.0
1979-02-28 18:21:18.940 ,3,1,0.,12.0,0.,12.0,0.,12.0,0.,12.0
1979-02-28 18:21:30.940 ,4,1,0.,12.0,0.,12.0,0.,12.0,0.,12.0
1979-02-28 18:21:42.940 ,4,1,0.,12.0,0.,12.0,0.,12.0,0.,12.0
1979-02-28 18:21:54.940 ,5,1,0.,12.0,0.,12.0,0.,12.0,0.,12.0
1979-02-28 18:22:06.940 ,5,1,0.,12.0,0.,12.0,0.,12.0,0.,12.0
1979-02-28 18:22:18.940 ,6,1,0.,12.0,0.,12.0,0.,12.0,0.,12.0
1979-02-28 18:22:30.940 ,6,1,0.,12.0,0.,12.0,0.,12.0,0.,12.0
1979-02-28 18:22:42.940 ,7,1,0.,12.0,0.,12.0,0.,12.0,0.,12.0
1979-02-28 18:22:54.940 ,7,1,0.,12.0,0.,12.0,0.,12.0,0.,12.0
1979-02-28 18:23:06.940 ,7,1,0.,12.0,0.,12.0,0.,12.0,0.,12.0
1979-02-28 18:23:18.940 ,7,1,0.,12.0,0.,12.0,0.,12.0,0.,12.0
1979-02-28 18:23:30.940 ,6,1,0.,12.0,0.,12.0,0.,12.0,0.,12.0
1979-02-28 18:23:42.940 ,6,1,0.,12.0,0.,12.0,0.,12.0,0.,12.0
1979-02-28 18:23:54.940 ,5,1,0.,12.0,0.,12.0,0.,12.0,0.,12.0
1979-02-28 18:24:06.940 ,5,1,0.,12.0,0.,12.0,0.,12.0,0.,12.0
1979-02-28 18:24:18.940 ,4,1,0.,12.0,0.,12.0,0.,12.0,0.,12.0
1979-02-28 18:24:30.940 ,4,1,0.,12.0,0.,12.0,0.,12.0,0.,12.0
1979-02-28 18:24:42.940 ,3,1,0.,12.0,0.,12.0,0.,12.0,0.,12.0
1979-02-28 18:24:54.940 ,3,1,0.,12.0,0.,12.0,0.,12.0,0.,12.0
1979-02-28 18:25:06.940 ,2,1,0.,12.0,0.,12.0,0.,12.0,0.,12.0
1979-02-28 18:25:18.940 ,2,1,0.,12.0,0.,12.0,0.,12.0,0.,12.0
1979-02-28 18:25:30.940 ,1,1,0.,12.0,0.,12.0,0.,12.0,0.,12.0
1979-02-28 18:25:42.940 ,1,1,0.,12.0,0.,12.0,0.,12.0,0.,12.0
1979-02-28 18:25:54.940 ,0,1,0.,12.0,0.,12.0,0.,12.0,0.,12.0
1979-02-28 18:26:06.940 ,0,1,0.,12.0,0.,12.0,0.,12.0,0.,12.0
1979-02-28 18:26:18.940 ,0,1,0.,12.0,0.,12.0,0.,12.0,0.,12.0
1979-02-28 18:26:30.940 ,0,1,0.,12.0,0.,12.0,0.,12.0,0.,12.0
1979-02-28 18:26:42.940 ,1,1,0.,12.0,0.,12.0,0.,12.0,0.,12.0
1979-02-28 18:26:54.940 ,1,1,0.,12.0,0.,12.0,0.,12.0,0.,12.0
1979-02-28 18:27:06.940 ,2,1,0.,12.0,0.,12.0,0.,12.0,0.,12.0
1979-02-28 18:27:18.940 ,2,1,0.,12.0,0.,12.0,0.,12.0,0.,12.0
1979-02-28 18:27:30.940 ,3,1,0.,12.0,0.,12.0,0.,12.0,0.,12.0
1979-02-28 18:27:42.940 ,3,1,0.,12.0,0.,12.0,0.,12.0,0.,12.0
1979-02-28 18:27:54.940 ,4,1,0.,12.0,0.,12.0,0.,12.0,0.,12.0
1979-02-28 18:28:06.940 ,4,1,0.,12.0,0.,12.0,0.,12.0,0.,12.0
1979-02-28 18:28:18.940 ,5,1,0.,12.0,0.,12.0,0.,12.0,0.,12.0
1979-02-28 18:28:30.940 ,5,1,0.,12.0,0.,12.0,0.,12.0,0.,12.0
1979-02-28 18:28:42.940 ,6,1,0.,12.0,0.,12.0,0.,12.0,0.,12.0
1979-02-28 18:28:54.940 ,6,1,0.,12.0,0.,12.0,0.,12.0,0.,12.0
1979-02-28 18:29:06.940 ,7,1,0.,12.0,0.,12.0,0.,12.0,0.,12.0
1979-02-28 18:29:18.940 ,7,1,0.,12.0,0.,12.0,0.,12.0,0.,12.0
1979-02-28 18:29:30.940 ,7,1,0.,12.0,0.,12.0,0.,12.0,0.,12.0
1979-02-28 18:29:42.940 ,7,1,0.,12.0,0.,12.0,0.,12.0,0.,12.0
1979-02-28 18:29:54.940 ,6,1,0.,12.0,0.,12.0,0.,12.0,0.,12.0
1979-02-28 18:30:06.940 ,6,1,0.,12.0,0.,12.0,0.,12.0,0.,12.0
1979-02-28 18:30:18.940 ,5,1,0.,12.0,0.,12.0,0.,12.0,0.,12.0
1979-02-28 18:30:30.940 ,5,1,0.,12.0,0.,12.0,0.,12.0,0.,12.0
1979-02-28 18:30:42.940 ,4,1,0.,12.0,0.,12.0,0.,12.0,0.,12.0
1979-02-28 18:30:54.940 ,4,1,0.,12.0,0.,12.0,0.,12.0,0.,12.0
1979-02-28 18:31:06.940 ,3,1,0.,12.0,0.,12.0,0.,12.0,0.,12.0
1979-02-28 18:31:18.940 ,3,1,0.,12.0,0.,12.0,0.,12.0,0.,12.0
1979-02-28 18:31:30.940 ,2,1,0.,12.0,0.,12.0,0.,12.0,0.,12.0
1979-02-28 18:31:42.940 ,2,1,0.,12.0,0.,12.0,0.,12.0,0.,12.0
1979-02-28 18:31:54.940 ,1,1,0.,12.0,1.,12.0,0.,12.0,0.,12.0
1979-02-28 18:32:06.940 ,1,1,0.,12.0,0.,12.0,0.,12.0,0.,12.0
1979-02-28 18:32:18.940 ,0,1,0.,12.0,0.,12.0,0.,12.0,0.,12.0
1979-02-28 18:32:30.940 ,0,1,0.,12.0,0.,12.0,0.,12.0,0.,12.0
1979-02-28 18:32:42.940 ,0,1,1.,12.0,0.,12.0,0.,12.0,0.,12.0
1979-02-28 18:32:54.940 ,0,1,0.,12.0,0.,12.0,0.,12.0,0.,12.0
1979-02-28 18:33:06.940 ,1,1,0.,12.0,0.,12.0,0.,12.0,0.,12.0
1979-02-28 18:33:18.940 ,1,1,0.,12.0,0.,12.0,0.,12.0,0.,12.0
1979-02-28 18:33:30.940 ,2,1,0.,12.0,0.,12.0,0.,12.0,0.,12.0
1979-02-28 18:33:42.940 ,2,1,0.,12.0,0.,12.0,0.,12.0,0.,12.0
1979-02-28 18:33:54.940 ,3,1,0.,12.0,0.,12.0,0.,12.0,0.,12.0
1979-02-28 18:34:06.940 ,3,1,0.,12.0,0.,12.0,0.,12.0,0.,12.0
1979-02-28 18:34:18.940 ,4,1,0.,12.0,0.,12.0,0.,12.0,0.,12.0
1979-02-28 18:34:30.940 ,4,1,0.,12.0,0.,12.0,0.,12.0,0.,12.0
1979-02-28 18:34:42.940 ,5,1,0.,12.0,0.,12.0,0.,12.0,0.,12.0
1979-02-28 18:34:54.940 ,5,1,0.,12.0,0.,12.0,0.,12.0,0.,12.0
1979-02-28 18:35:06.940 ,6,1,0.,12.0,0.,12.0,0.,12.0,0.,12.0
1979-02-28 18:35:18.940 ,6,1,1.,12.0,0.,12.0,0.,12.0,0.,12.0
1979-02-28 18:35:30.940 ,7,1,0.,12.0,0.,12.0,0.,12.0,0.,12.0
1979-02-28 18:35:42.940 ,7,1,0.,12.0,0.,12.0,0.,12.0,0.,12.0
1979-02-28 18:35:54.940 ,7,1,0.,12.0,0.,12.0,0.,12.0,0.,12.0
1979-02-28 18:36:06.940 ,7,1,0.,12.0,0.,12.0,0.,12.0,0.,12.0
1979-02-28 18:36:18.940 ,6,1,0.,12.0,0.,12.0,0.,12.0,0.,12.0
1979-02-28 18:36:30.940 ,6,1,0.,12.0,0.,12.0,0.,12.0,0.,12.0
1979-02-28 18:36:42.940 ,5,1,0.,12.0,0.,12.0,0.,12.0,0.,12.0
1979-02-28 18:36:54.940 ,5,1,0.,12.0,0.,12.0,0.,12.0,0.,12.0
1979-02-28 18:37:06.940 ,4,1,0.,12.0,0.,12.0,0.,12.0,0.,12.0
1979-02-28 18:37:18.940 ,4,1,1.,12.0,0.,12.0,0.,12.0,0.,12.0
1979-02-28 18:37:30.940 ,3,1,0.,12.0,0.,12.0,0.,12.0,0.,12.0
1979-02-28 18:37:42.940 ,3,1,0.,12.0,0.,12.0,0.,12.0,0.,12.0
1979-02-28 18:37:54.940 ,2,1,0.,12.0,0.,12.0,0.,12.0,0.,12.0
1979-02-28 18:38:06.940 ,2,1,0.,12.0,0.,12.0,0.,12.0,0.,12.0
1979-02-28 18:38:18.940 ,1,1,0.,12.0,0.,12.0,0.,12.0,0.,12.0
1979-02-28 18:38:30.940 ,1,1,0.,12.0,0.,12.0,0.,12.0,0.,12.0
1979-02-28 18:38:42.940 ,0,1,0.,12.0,0.,12.0,0.,12.0,0.,12.0
1979-02-28 18:38:54.940 ,0,1,0.,12.0,0.,12.0,0.,12.0,0.,12.0
1979-02-28 18:39:06.940 ,0,1,0.,12.0,0.,12.0,0.,12.0,0.,12.0
1979-02-28 18:39:18.940 ,0,1,0.,12.0,0.,12.0,0.,12.0,0.,12.0
1979-02-28 18:39:30.940 ,1,1,0.,12.0,0.,12.0,0.,12.0,0.,12.0
1979-02-28 18:39:42.940 ,1,1,0.,12.0,0.,12.0,0.,12.0,0.,12.0
1979-02-28 18:39:54.940 ,2,1,0.,12.0,0.,12.0,0.,12.0,0.,12.0
1979-02-28 18:40:06.940 ,2,1,0.,12.0,0.,12.0,0.,12.0,0.,12.0
1979-02-28 18:40:18.940 ,3,1,0.,12.0,0.,12.0,0.,12.0,0.,12.0
1979-02-28 18:40:30.940 ,3,1,0.,12.0,0.,12.0,0.,12.0,0.,12.0
1979-02-28 18:40:42.940 ,4,1,0.,12.0,0.,12.0,0.,12.0,0.,12.0
1979-02-28 18:40:54.940 ,4,1,0.,12.0,0.,12.0,0.,12.0,0.,12.0
1979-02-28 18:41:06.940 ,5,1,0.,12.0,0.,12.0,0.,12.0,0.,12.0
1979-02-28 18:41:18.940 ,5,1,0.,12.0,0.,12.0,0.,12.0,0.,12.0
1979-02-28 18:41:30.940 ,6,1,0.,12.0,0.,12.0,0.,12.0,0.,12.0
1979-02-28 18:41:42.940 ,6,1,0.,12.0,0.,12.0,0.,12.0,0.,12.0
1979-02-28 18:41:54.940 ,7,1,0.,12.0,0.,12.0,0.,12.0,0.,12.0
1979-02-28 18:42:06.940 ,7,1,0.,12.0,0.,12.0,0.,12.0,0.,12.0
1979-02-28 18:42:18.940 ,7,1,0.,12.0,0.,12.0,0.,12.0,0.,12.0
1979-02-28 18:42:30.940 ,7,1,0.,12.0,0.,12.0,0.,12.0,0.,12.0
1979-02-28 18:42:42.940 ,6,1,0.,12.0,0.,12.0,0.,12.0,0.,12.0
1979-02-28 18:42:54.940 ,6,1,0.,12.0,0.,12.0,0.,12.0,0.,12.0
1979-02-28 18:43:06.940 ,5,1,0.,12.0,0.,12.0,0.,12.0,0.,12.0
1979-02-28 18:43:18.940 ,5,1,0.,12.0,0.,12.0,0.,12.0,0.,12.0
1979-02-28 18:43:30.940 ,4,1,0.,12.0,0.,12.0,0.,12.0,0.,12.0
1979-02-28 18:43:42.940 ,4,1,0.,12.0,0.,12.0,0.,12.0,0.,12.0
1979-02-28 18:43:54.940 ,3,1,0.,12.0,0.,12.0,0.,12.0,0.,12.0
1979-02-28 18:44:06.940 ,3,1,0.,12.0,0.,12.0,0.,12.0,0.,12.0
1979-02-28 18:44:18.940 ,2,1,0.,12.0,0.,12.0,0.,12.0,0.,12.0
1979-02-28 18:44:30.940 ,2,1,0.,12.0,0.,12.0,0.,12.0,0.,12.0
1979-02-28 18:44:42.940 ,1,1,0.,12.0,0.,12.0,0.,12.0,0.,12.0
1979-02-28 18:44:54.940 ,1,1,0.,12.0,0.,12.0,0.,12.0,0.,12.0
1979-02-28 18:45:06.940 ,0,1,0.,12.0,0.,12.0,0.,12.0,0.,12.0
1979-02-28 18:45:18.940 ,0,1,0.,12.0,0.,12.0,0.,12.0,0.,12.0
1979-02-28 18:45:30.940 ,0,1,1.,12.0,0.,12.0,0.,12.0,0.,12.0
1979-02-28 18:45:42.940 ,0,1,1.,12.0,0.,12.0,0.,12.0,0.,12.0
1979-02-28 18:45:54.940 ,1,1,0.,12.0,0.,12.0,0.,12.0,0.,12.0
1979-02-28 18:46:06.940 ,1,1,0.,12.0,0.,12.0,0.,12.0,0.,12.0
1979-02-28 18:46:18.940 ,2,1,,0,,0,,0,,0
1979-02-28 18:46:30.940 ,2,1,0.,12.0,0.,12.0,0.,12.0,0.,12.0
1979-02-28 18:46:42.940 ,3,1,0.,12.0,0.,12.0,0.,12.0,0.,12.0
1979-02-28 18:46:54.940 ,3,1,0.,12.0,0.,12.0,0.,12.0,0.,12.0
1979-02-28 18:47:06.940 ,4,1,0.,12.0,0.,12.0,0.,12.0,0.,12.0
1979-02-28 18:47:18.940 ,4,1,0.,12.0,0.,12.0,0.,12.0,0.,12.0
1979-02-28 18:47:30.940 ,5,1,0.,12.0,0.,12.0,0.,12.0,0.,12.0
1979-02-28 18:47:42.940 ,5,1,0.,12.0,0.,12.0,0.,12.0,0.,12.0
1979-02-28 18:47:54.940 ,6,1,0.,12.0,0.,12.0,0.,12.0,0.,12.0
1979-02-28 18:48:06.940 ,6,1,0.,12.0,0.,12.0,0.,12.0,0.,12.0
1979-02-28 18:48:18.940 ,7,1,0.,12.0,0.,12.0,0.,12.0,0.,12.0
1979-02-28 18:48:30.940 ,7,1,0.,12.0,0.,12.0,0.,12.0,0.,12.0
1979-02-28 18:48:42.940 ,7,1,0.,12.0,0.,12.0,0.,12.0,0.,12.0
1979-02-28 18:48:54.940 ,7,1,0.,12.0,0.,12.0,0.,12.0,0.,12.0
1979-02-28 18:49:06.940 ,6,1,0.,12.0,0.,12.0,0.,12.0,0.,12.0
1979-02-28 18:49:18.940 ,6,1,0.,12.0,0.,12.0,0.,12.0,0.,12.0
1979-02-28 18:49:30.940 ,5,1,0.,12.0,0.,12.0,0.,12.0,0.,12.0
1979-02-28 18:49:42.940 ,5,1,0.,12.0,0.,12.0,0.,12.0,0.,12.0
1979-02-28 18:49:54.940 ,4,1,0.,12.0,0.,12.0,0.,12.0,0.,12.0
1979-02-28 18:50:06.940 ,4,1,1.,12.0,0.,12.0,0.,12.0,0.,12.0
1979-02-28 18:50:18.940 ,3,1,0.,12.0,0.,12.0,0.,12.0,0.,12.0
1979-02-28 18:50:30.940 ,3,1,0.,12.0,0.,12.0,0.,12.0,0.,12.0
1979-02-28 18:50:42.940 ,2,1,0.,12.0,0.,12.0,0.,12.0,0.,12.0
1979-02-28 18:50:54.940 ,2,1,0.,12.0,0.,12.0,0.,12.0,0.,12.0
1979-02-28 18:51:06.940 ,1,1,0.,12.0,0.,12.0,0.,12.0,0.,12.0
1979-02-28 18:51:18.940 ,1,1,0.,12.0,0.,12.0,0.,12.0,0.,12.0
1979-02-28 18:51:30.940 ,0,1,0.,12.0,0.,12.0,0.,12.0,0.,12.0
1979-02-28 18:51:42.940 ,0,1,0.,12.0,0.,12.0,0.,12.0,0.,12.0
1979-02-28 18:51:54.940 ,0,1,0.,12.0,0.,12.0,0.,12.0,0.,12.0
1979-02-28 18:52:06.940 ,0,1,0.,12.0,0.,12.0,0.,12.0,0.,12.0
1979-02-28 18:52:18.940 ,1,1,0.,12.0,0.,12.0,0.,12.0,0.,12.0
1979-02-28 18:52:30.940 ,1,1,0.,12.0,0.,12.0,0.,12.0,0.,12.0
1979-02-28 18:52:42.940 ,2,1,0.,12.0,0.,12.0,0.,12.0,0.,12.0
1979-02-28 18:52:54.940 ,2,1,0.,12.0,0.,12.0,0.,12.0,0.,12.0
1979-02-28 18:53:06.940 ,3,1,0.,12.0,0.,12.0,0.,12.0,0.,12.0
1979-02-28 18:53:18.940 ,3,1,0.,12.0,0.,12.0,0.,12.0,0.,12.0
1979-02-28 18:53:30.940 ,4,1,0.,12.0,0.,12.0,0.,12.0,0.,12.0
1979-02-28 18:53:42.940 ,4,1,0.,12.0,0.,12.0,0.,12.0,0.,12.0
1979-02-28 18:53:54.940 ,5,1,0.,12.0,0.,12.0,0.,12.0,0.,12.0
1979-02-28 18:54:06.940 ,5,1,0.,12.0,0.,12.0,0.,12.0,0.,12.0
1979-02-28 18:58:18.940 ,0,0,0.,12.0,0.,12.0,0.,12.0,0.,12.0
1979-02-28 18:58:30.940 ,0,0,0.,12.0,0.,12.0,0.,12.0,0.,12.0
1979-02-28 18:58:42.940 ,1,1,0.,12.0,0.,12.0,0.,12.0,0.,12.0
1979-02-28 18:58:54.940 ,1,1,0.,12.0,0.,12.0,0.,12.0,0.,12.0
1979-02-28 18:59:06.940 ,2,1,0.,12.0,0.,12.0,0.,12.0,0.,12.0
1979-02-28 18:59:18.940 ,2,1,0.,12.0,0.,12.0,0.,12.0,0.,12.0
1979-02-28 18:59:30.940 ,3,1,0.,12.0,0.,12.0,0.,12.0,0.,12.0
1979-02-28 18:59:42.940 ,3,1,0.,12.0,0.,12.0,0.,12.0,0.,12.0
1979-02-28 18:59:54.940 ,4,1,0.,12.0,0.,12.0,0.,12.0,0.,12.0
1979-02-28 19:00:06.940 ,4,1,0.,12.0,0.,12.0,0.,12.0,0.,12.0
1979-02-28 19:00:18.940 ,5,1,0.,12.0,0.,12.0,0.,12.0,0.,12.0
1979-02-28 19:00:30.940 ,5,1,0.,12.0,0.,12.0,0.,12.0,0.,12.0
1979-02-28 19:00:42.940 ,6,1,0.,12.0,0.,12.0,0.,12.0,0.,12.0
1979-02-28 19:00:54.940 ,6,1,0.,12.0,0.,12.0,0.,12.0,0.,12.0
1979-02-28 19:01:06.940 ,7,1,0.,12.0,0.,12.0,0.,12.0,0.,12.0
1979-02-28 19:01:18.940 ,7,1,0.,12.0,0.,12.0,0.,12.0,0.,12.0
1979-02-28 19:01:30.940 ,7,1,0.,12.0,0.,12.0,0.,12.0,0.,12.0
1979-02-28 19:01:42.940 ,7,1,0.,12.0,0.,12.0,0.,12.0,0.,12.0
1979-02-28 19:01:54.940 ,6,1,0.,12.0,0.,12.0,0.,12.0,0.,12.0
1979-02-28 19:02:06.940 ,6,1,0.,12.0,0.,12.0,0.,12.0,0.,12.0
1979-02-28 19:02:18.940 ,5,1,0.,12.0,0.,12.0,0.,12.0,0.,12.0
1979-02-28 19:02:30.940 ,5,1,0.,12.0,0.,12.0,0.,12.0,0.,12.0
1979-02-28 19:02:42.940 ,4,1,0.,12.0,0.,12.0,0.,12.0,0.,12.0
1979-02-28 19:02:54.940 ,4,1,0.,12.0,0.,12.0,0.,12.0,0.,12.0
1979-02-28 19:03:06.940 ,3,1,0.,12.0,0.,12.0,0.,12.0,0.,12.0
1979-02-28 19:03:18.940 ,3,1,0.,12.0,0.,12.0,0.,12.0,0.,12.0
1979-02-28 19:03:30.940 ,2,1,0.,12.0,0.,12.0,0.,12.0,0.,12.0
1979-02-28 19:03:42.940 ,2,1,0.,12.0,0.,12.0,0.,12.0,0.,12.0
1979-02-28 19:03:54.940 ,1,1,0.,12.0,0.,12.0,0.,12.0,0.,12.0
1979-02-28 19:04:06.940 ,1,1,0.,12.0,0.,12.0,0.,12.0,0.,12.0
1979-02-28 19:04:18.940 ,0,1,0.,12.0,0.,12.0,0.,12.0,0.,12.0
1979-02-28 19:04:30.940 ,0,1,0.,12.0,0.,12.0,0.,12.0,0.,12.0
1979-02-28 19:04:42.940 ,0,1,1.,12.0,0.,12.0,0.,12.0,0.,12.0
1979-02-28 19:04:54.940 ,0,1,0.,12.0,0.,12.0,0.,12.0,0.,12.0
1979-02-28 19:05:06.940 ,1,1,0.,12.0,0.,12.0,0.,12.0,0.,12.0
1979-02-28 19:05:18.940 ,1,1,0.,12.0,0.,12.0,0.,12.0,0.,12.0
1979-02-28 19:05:30.940 ,2,1,1.,12.0,0.,12.0,0.,12.0,0.,12.0
1979-02-28 19:05:42.940 ,2,1,0.,12.0,0.,12.0,0.,12.0,0.,12.0
1979-02-28 19:05:54.940 ,3,1,0.,12.0,0.,12.0,0.,12.0,0.,12.0
1979-02-28 19:06:06.940 ,3,1,0.,12.0,0.,12.0,0.,12.0,0.,12.0
1979-02-28 19:06:18.940 ,4,1,0.,12.0,0.,12.0,0.,12.0,0.,12.0
1979-02-28 19:06:30.940 ,4,1,0.,12.0,0.,12.0,0.,12.0,0.,12.0
1979-02-28 19:06:42.940 ,5,1,0.,12.0,0.,12.0,0.,12.0,0.,12.0
1979-02-28 19:06:54.940 ,5,1,0.,12.0,0.,12.0,0.,12.0,0.,12.0
1979-02-28 19:07:06.940 ,6,1,0.,12.0,0.,12.0,0.,12.0,0.,12.0
1979-02-28 19:07:18.940 ,6,1,0.,12.0,0.,12.0,0.,12.0,0.,12.0
1979-02-28 19:07:30.940 ,7,1,0.,12.0,0.,12.0,0.,12.0,0.,12.0
1979-02-28 19:07:42.940 ,7,1,0.,12.0,0.,12.0,0.,12.0,0.,12.0
1979-02-28 19:07:54.940 ,7,1,0.,12.0,0.,12.0,0.,12.0,0.,12.0
1979-02-28 19:08:06.940 ,7,1,0.,12.0,0.,12.0,0.,12.0,0.,12.0
1979-02-28 19:08:18.940 ,6,1,0.,12.0,0.,12.0,0.,12.0,0.,12.0
1979-02-28 19:08:30.940 ,6,1,0.,12.0,0.,12.0,0.,12.0,0.,12.0
1979-02-28 19:08:42.940 ,5,1,0.,12.0,0.,12.0,0.,12.0,0.,12.0
1979-02-28 19:08:54.940 ,5,1,0.,12.0,0.,12.0,0.,12.0,0.,12.0
1979-02-28 19:09:06.940 ,4,1,0.,12.0,0.,12.0,0.,12.0,0.,12.0
1979-02-28 19:09:18.940 ,4,1,0.,12.0,0.,12.0,0.,12.0,0.,12.0
1979-02-28 19:09:30.940 ,3,1,0.,12.0,0.,12.0,0.,12.0,0.,12.0
1979-02-28 19:09:42.940 ,3,1,0.,12.0,0.,12.0,0.,12.0,0.,12.0
1979-02-28 19:09:54.940 ,2,1,0.,12.0,0.,12.0,0.,12.0,0.,12.0
1979-02-28 19:10:06.940 ,2,1,0.,12.0,0.,12.0,0.,12.0,0.,12.0
1979-02-28 19:10:18.940 ,1,1,0.,12.0,0.,12.0,0.,12.0,0.,12.0
1979-02-28 19:10:30.940 ,1,1,0.,12.0,0.,12.0,0.,12.0,0.,12.0
1979-02-28 19:10:42.940 ,0,1,0.,12.0,0.,12.0,0.,12.0,0.,12.0
1979-02-28 19:10:54.940 ,0,1,0.,12.0,0.,12.0,0.,12.0,0.,12.0
1979-02-28 19:11:06.940 ,0,1,0.,12.0,0.,12.0,0.,12.0,0.,12.0
1979-02-28 19:11:18.940 ,0,1,0.,12.0,0.,12.0,0.,12.0,0.,12.0
1979-02-28 19:11:30.940 ,1,1,0.,12.0,0.,12.0,0.,12.0,0.,12.0
1979-02-28 19:11:42.940 ,1,1,0.,12.0,0.,12.0,0.,12.0,0.,12.0
1979-02-28 19:11:54.940 ,2,1,0.,12.0,0.,12.0,0.,12.0,0.,12.0
1979-02-28 19:12:06.940 ,2,1,0.,12.0,0.,12.0,0.,12.0,0.,12.0
1979-02-28 19:12:18.940 ,3,1,0.,12.0,0.,12.0,0.,12.0,0.,12.0
1979-02-28 19:12:30.940 ,3,1,0.,12.0,0.,12.0,0.,12.0,0.,12.0
1979-02-28 19:13:30.940 ,0,0,0.,12.0,0.,12.0,0.,12.0,0.,12.0
1979-02-28 19:13:42.940 ,0,0,0.,12.0,0.,12.0,0.,12.0,0.,12.0
1979-02-28 19:13:54.940 ,7,1,0.,12.0,0.,12.0,0.,12.0,0.,12.0
1979-02-28 19:14:06.940 ,7,1,0.,12.0,0.,12.0,0.,12.0,0.,12.0
1979-02-28 19:14:18.940 ,7,1,0.,12.0,0.,12.0,0.,12.0,0.,12.0
1979-02-28 19:14:30.940 ,7,1,0.,12.0,0.,12.0,0.,12.0,0.,12.0
1979-02-28 19:14:42.940 ,6,1,0.,12.0,0.,12.0,0.,12.0,0.,12.0
1979-02-28 19:14:54.940 ,6,1,0.,12.0,0.,12.0,0.,12.0,0.,12.0
1979-02-28 19:15:06.940 ,5,1,0.,12.0,0.,12.0,0.,12.0,0.,12.0
1979-02-28 19:15:18.940 ,5,1,0.,12.0,0.,12.0,0.,12.0,0.,12.0
1979-02-28 19:15:30.940 ,4,1,0.,12.0,0.,12.0,0.,12.0,0.,12.0
1979-02-28 19:15:42.940 ,4,1,0.,12.0,0.,12.0,0.,12.0,0.,12.0
1979-02-28 19:15:54.940 ,3,1,0.,12.0,0.,12.0,0.,12.0,0.,12.0
1979-02-28 19:16:06.940 ,3,1,0.,12.0,0.,12.0,0.,12.0,0.,12.0
1979-02-28 19:16:18.940 ,2,1,0.,12.0,0.,12.0,0.,12.0,0.,12.0
1979-02-28 19:16:30.940 ,2,1,0.,12.0,0.,12.0,0.,12.0,0.,12.0
1979-02-28 19:16:42.940 ,1,1,0.,12.0,0.,12.0,0.,12.0,0.,12.0
1979-02-28 19:16:54.940 ,1,1,0.,12.0,0.,12.0,0.,12.0,0.,12.0
1979-02-28 19:17:06.940 ,0,1,0.,12.0,0.,12.0,0.,12.0,0.,12.0
1979-02-28 19:17:18.940 ,0,1,1.,12.0,0.,12.0,0.,12.0,0.,12.0
1979-02-28 19:17:30.940 ,0,1,0.,12.0,0.,12.0,0.,12.0,0.,12.0
1979-02-28 19:17:42.940 ,0,1,1.,12.0,0.,12.0,0.,12.0,0.,12.0
1979-02-28 19:17:54.940 ,1,1,0.,12.0,0.,12.0,0.,12.0,0.,12.0
1979-02-28 19:18:06.940 ,1,1,0.,12.0,0.,12.0,0.,12.0,0.,12.0
1979-02-28 19:18:18.940 ,2,1,0.,12.0,0.,12.0,0.,12.0,0.,12.0
1979-02-28 19:18:30.940 ,2,1,0.,12.0,0.,12.0,0.,12.0,0.,12.0
1979-02-28 19:18:42.940 ,3,1,0.,12.0,0.,12.0,0.,12.0,0.,12.0
1979-02-28 19:18:54.940 ,3,1,0.,12.0,0.,12.0,0.,12.0,0.,12.0
1979-02-28 19:19:06.940 ,4,1,0.,12.0,0.,12.0,0.,12.0,0.,12.0
1979-02-28 19:19:18.940 ,4,1,0.,12.0,0.,12.0,0.,12.0,0.,12.0
1979-02-28 19:19:30.940 ,5,1,0.,12.0,0.,12.0,0.,12.0,0.,12.0
1979-02-28 19:19:42.940 ,5,1,0.,12.0,0.,12.0,0.,12.0,0.,12.0
1979-02-28 19:19:54.940 ,6,1,0.,12.0,0.,12.0,0.,12.0,0.,12.0
1979-02-28 19:20:06.940 ,6,1,0.,12.0,0.,12.0,0.,12.0,0.,12.0
1979-02-28 19:20:18.940 ,7,1,0.,12.0,0.,12.0,0.,12.0,0.,12.0
1979-02-28 19:20:30.940 ,7,1,0.,12.0,0.,12.0,0.,12.0,0.,12.0
1979-02-28 19:20:42.940 ,7,1,0.,12.0,0.,12.0,0.,12.0,0.,12.0
1979-02-28 19:20:54.940 ,7,1,0.,12.0,0.,12.0,0.,12.0,0.,12.0
1979-02-28 19:21:06.940 ,6,1,0.,12.0,0.,12.0,0.,12.0,0.,12.0
1979-02-28 19:21:18.940 ,6,1,0.,12.0,0.,12.0,0.,12.0,0.,12.0
1979-02-28 19:21:30.940 ,5,1,0.,12.0,0.,12.0,0.,12.0,0.,12.0
1979-02-28 19:21:42.940 ,5,1,0.,12.0,0.,12.0,0.,12.0,0.,12.0
1979-02-28 19:21:54.940 ,4,1,0.,12.0,0.,12.0,0.,12.0,0.,12.0
1979-02-28 19:22:06.940 ,4,1,0.,12.0,0.,12.0,0.,12.0,0.,12.0